Regional Weather Roundup
Issued by NWS

Home | Current Version | Previous Version | Graphics & Text | Print | Product List | Glossary On
Versions: 1 2 3 4 5 6 7 8 9 10 11 12 13 14 15 16 17 18 19 20 21 22 23 24 25 26 27 28 29 30 31 32 33 34 35 36 37 38 39 40 41 42 43 44 45 46 47 48 49 50
328
ASUS44 KJAN 302210
RWRMS

MISSISSIPPI HOURLY WEATHER ROUNDUP
NATIONAL WEATHER SERVICE JACKSON MS
500 PM CDT TUE SEP 30 2014

NOTE: "FAIR: INDICATES FEW OR NO CLOUDS BELOW 12,000 FEET WITH NO
SIGNIFICANT WEATHER AND/OR OBSTRUCTIONS TO VISIBILITY.

MSZ001>002-007>008-010>013-018>021-025>028-034>036-302300-
NORTHWEST MISSISSIPPI

CITY           SKY/WX    TMP DP  RH WIND       PRES   REMARKS
CLARKSDALE     PTSUNNY   86  57  37 E3        29.85F
CLEVELAND      FAIR      88  58  35 CALM      29.83F
GREENWOOD      PTSUNNY   87  63  44 SE7       29.84F
GREENVILLE     MOSUNNY   90  56  31 CALM      29.83F
GRENADA        FAIR      86  61  42 E5        29.86S
OLIVE BRANCH   PTSUNNY   82  61  47 CALM      29.87F
OXFORD         FAIR      82  61  47 CALM      29.89S
TUNICA         PTCLDY    84  57  39 CALM      29.86S
$$

MSZ003>006-009-014>017-022>024-029>033-037>039-302300-
NORTHEAST MISSISSIPPI

CITY           SKY/WX    TMP DP  RH WIND       PRES   REMARKS
COLUMBUS AFB   MOSUNNY   85  62  46 SW6       29.87S
CORINTH        FAIR      86  54  32 CALM      29.87S
GOLDN TRIANGLE MOSUNNY   84  59  42 CALM      29.86F
STARKVILLE     FAIR      84  59  42 S5        29.87S
TUPELO         SUNNY     85  55  35 E7        29.86F
$$

MSZ040-058-302300-
CENTRAL MISSISSIPPI

CITY           SKY/WX    TMP DP  RH WIND       PRES   REMARKS
JACKSON INTL   MOSUNNY   86  62  44 CALM      29.84F
JACKSON HAWKNS MOSUNNY   87  62  43 SE5       29.85S
MERIDIAN KEY   SUNNY     86  58  38 E6        29.86S
MERIDIAN NAS   MOSUNNY   86  56  35 CALM      29.86F
RAYMOND        FAIR      88  82  84 S3        29.84S HX 108
VICKSBURG      MOSUNNY   89  62  40 E6        29.83F
$$

MSZ059>079-302300-
SOUTH MISSISSIPPI

CITY           SKY/WX    TMP DP  RH WIND       PRES   REMARKS
BROOKHAVEN     FAIR      84  66  54 E3        29.86F
COLUMBIA       FAIR      86  68  54 E7        29.83F
HATTIESBURG    SUNNY     84  68  58 E5        29.86F
MCCOMB         SUNNY     86  66  51 VRB5      29.85S
NATCHEZ        SUNNY     86  70  58 SE6       29.84S HX  90
PINE BELT      SUNNY     82  64  54 NE6       29.88F
$$

MSZ080>082-302300-
COASTAL MISSISSIPPI

CITY           SKY/WX    TMP DP  RH WIND       PRES   REMARKS
BAY ST LOUIS   MOSUNNY   82  70  65 SE8       29.85F
BILOXI         MOSUNNY   82  73  73 S8        29.85S
PASCAGOULA     SUNNY     84  69  60 NE7       29.85F
GULFPORT       MOSUNNY   81  72  74 SE12      29.84F
$$



USA.gov is the U.S. government's official web portal to all federal, state and local government web resources and services.